Location: Bilsen
(53.7722°N, 9.8765°E)
Time: 16:56:07
(UTC+00:00)

ATLAS 2AS CENTAUR R/B - Pass Details

Date: 18 February 2020
Orbit: 929 x 1283 km, 63.7° (Epoch: 03 April)

Event Time Altitude Azimuth Distance (km) Brightness Sun altitude
Exits shadow 01:39:27 43° 11° (N) 1,709 3.9 -41.3°
Drops below altitude 10° 01:45:26 10° 55° (NE) 3,184 5.8 -40.7°
Sets 01:48:17 0° 61° (ENE) 4,108 6.6 -40.4°
